TJS-17

Satellite information

Favourite Embed

Satellite Type and Status

PAYLOADIN ORBIT

Key statistics

Satellite TJS-17 at a glance.

Uptime

247

Days in orbit

Revolutions

≈ 1.0

Per day

Orbit

GEO

Geostationary Orbit

Inclination

0.6

Latest

Satellite identification and parameters

Extended collection of information and parameters for TJS-17.

Object identification

Identified? True

Debris? False

Object name: TJS-17

International designator: 2025-073A

Object number (NORAD): 63524

Object ID (CCSDS): 63524

Country: PEOPLES REPUBLIC OF CHINA (PRC)

Current information (Y/N): Y

RCS size: LARGE

Orbital parameters

Period: 1436.104 minutes

Inclination: 0.5833 deg

SMA: 42164.874 km

Apoapsis: 35803.917 km

Periapsis: 35769.561 km

RAAN: 83.8421 deg

Eccentricy: 0.0004074

Argument of periapsis: 205.9025 deg

Mean anomaly: 242.9379 deg

Mean motion: 1.00271279 rev/day

Mean motion (dot): -0.00000058 rev/day2

B* drag term: 0.0 1/REarth

Two-line elements (TLE)

Creation date: Dec. 12, 2025, 8:06 p.m.

Reference frame: TEME

Reference center: EARTH

Epoch: Dec. 12, 2025, 7:05 p.m. UTC

TLE line 0: 0 TJS-17

TLE line 1: 1 63524U 25073A 25346.79565330 -.00000058 00000-0 00000+0 0 9998

TLE line 2: 2 63524 0.5833 83.8421 0004074 205.9025 242.9379 1.00271279 2428

Live tracking on map

Real-time ground track for satellite TJS-17.

In-orbit conjunctions

There are no conjunctions computed for TJS-17, at the moment. Check back to stay up to date, as we update our databases every day.

Go to all conjunctions

Associated space launch

Chinese classified satellite claimed to be for communication technology test purposes. Actual mission not known.

TJS-17 was lifted into orbit during the mission ‘Long March 3B/E | TJSW-17’, on board a Long March 3B/E space rocket.

The launch took place on April 10, 2025, 4:47 p.m. from Launch Complex 3 (LC-3/LA-1).

For more information about the launch, click the button.

Launch to space Long March 3B/E | TJSW-17
Long March 3B/E | TJSW-17

Agency: N/A

Status: Launch Successful

Launch date: April 10, 2025, 4:47 p.m. UTC

Rocket: Long March 3B/E

Launch pad: Launch Complex 3 (LC-3/LA-1)

Location: Xichang Satellite Launch Center, People's Republic of China

...

Latest news about this satellite

News about space launch
China launches TJS-17, expanding classified geostationary satellite series

China launched Thursday what appears to be the third satellite for a subset of classified, experimental satellites bound for geosynchronous orbit. The post China launches TJS-17, expanding classified geostationary satellite series appeared first on Space...


Newsletter sign-up

Weekly statistics, charts and insights to help you stay on top of the space industry.